Weather History for KRBD - August, 2014

Change the Weather History Date:

Tuesday, August 26, 2014

  Actual Average Record
Temperature  
Mean Temperature 88 °F -  
Max Temperature 100 °F 91 °F 106 °F (2011)
Min Temperature 78 °F 71 °F 66 °F (1997)
Cooling Degree Days 24    
Growing Degree Days 38 (Base 50)    
Moisture  
Dew Point 68 °F    
Average Humidity 52    
Maximum Humidity 74    
Minimum Humidity 30    
Precipitation  
Precipitation 0.00 in - - ()
Sea Level Pressure  
Sea Level Pressure 29.96 in    
Wind  
Wind Speed 6 mph (East)    
Max Wind Speed 15 mph    
Max Gust Speed 21 mph    
Visibility 10 miles    
Events      
Averages and records for this station are not official NWS values.
T = Trace of Precipitation, MM = Missing Value Source: NWS Daily Summary

Daily Weather History Graph

Daily Weather History Graph

Search for Another Location

Airport or City:

Trip Planner

Search our weather history database for the weather conditions in past years. The results will help you decide how hot, cold, wet, or windy it might be!

Date:

Astronomy

Aug. 26, 2014 Rise Set
Actual Time 6:58 AM CDT 7:59 PM CDT
Civil Twilight 6:32 AM CDT 8:24 PM CDT
Nautical Twilight 6:02 AM CDT 8:54 PM CDT
Astronomical Twilight 5:31 AM CDT 9:25 PM CDT
Moon 7:54 AM CDT (8/26) 8:28 PM CDT (8/26)
Length of Visible Light 13h 51m
Length of Day
13h 01m
New Moon, 1% of the Moon is Illuminated
Aug 26
New Moon
Sep 2
First Quarter
Sep 8
Full
Sep 15
Last Quarter
Sep 24
New

Hourly Weather History & Observations

Time (CDT) Temp. Heat Index Dew Point Humidity Pressure Visibility Wind Dir Wind Speed Gust Speed Precip Events Conditions
12:53 AM 84.0 °F 86.5 °F 66.9 °F 56% 29.93 in 10.0 mi SSE 3.5 mph - N/A   Clear
1:53 AM 81.0 °F 83.8 °F 68.0 °F 65% 29.92 in 10.0 mi ESE 4.6 mph - N/A   Clear
2:53 AM 81.0 °F 83.3 °F 66.9 °F 62% 29.92 in 10.0 mi Calm Calm - N/A   Clear
4:53 AM 78.1 °F - 69.1 °F 74% 29.95 in 10.0 mi ESE 5.8 mph - N/A   Clear
5:53 AM 80.1 °F 83.2 °F 70.0 °F 71% 29.96 in 10.0 mi SSE 4.6 mph - N/A   Clear
7:53 AM 80.1 °F 83.2 °F 70.0 °F 71% 29.99 in 10.0 mi SE 3.5 mph - N/A   Clear
8:53 AM 82.9 °F 87.5 °F 71.1 °F 67% 30.01 in 10.0 mi SE 3.5 mph - N/A   Clear
9:53 AM 87.1 °F 92.8 °F 71.1 °F 59% 30.01 in 10.0 mi ENE 3.5 mph - N/A   Clear
10:53 AM 91.0 °F 98.2 °F 72.0 °F 53% 30.02 in 10.0 mi East 5.8 mph - N/A   Mostly Cloudy
11:53 AM 93.9 °F 100.8 °F 71.1 °F 47% 30.01 in 10.0 mi ESE 4.6 mph - N/A   Clear
12:53 PM 95.0 °F 101.3 °F 70.0 °F 44% 30.00 in 10.0 mi NNE 3.5 mph - N/A   Scattered Clouds
1:53 PM 95.0 °F 100.7 °F 69.1 °F 43% 29.99 in 10.0 mi ENE 11.5 mph - N/A   Partly Cloudy
2:53 PM 98.1 °F 104.4 °F 69.1 °F 39% 29.96 in 10.0 mi ENE 11.5 mph - N/A   Clear
4:53 PM 99.0 °F 100.5 °F 63.0 °F 30% 29.93 in 10.0 mi East 15.0 mph 20.7 mph N/A   Partly Cloudy
5:53 PM 98.1 °F 101.2 °F 64.9 °F 34% 29.91 in 10.0 mi East 13.8 mph 19.6 mph N/A   Clear
6:53 PM 96.1 °F 98.8 °F 64.9 °F 36% 29.91 in 10.0 mi East 12.7 mph - N/A   Clear
7:53 PM 93.0 °F 95.9 °F 66.0 °F 41% 29.93 in 10.0 mi East 10.4 mph - N/A   Clear
8:53 PM 91.0 °F 93.8 °F 66.0 °F 44% 29.95 in 10.0 mi East 8.1 mph - N/A   Clear
9:53 PM 87.1 °F 89.9 °F 66.9 °F 51% 29.96 in 10.0 mi ESE 5.8 mph - N/A   Clear
10:53 PM 86.0 °F 89.4 °F 68.0 °F 55% 29.99 in 10.0 mi East 8.1 mph - N/A   Clear